owner,sensor,date,latitude,longitude,vertical_datum,wind_speed,wind_to_direction,wind_speed_of_gust,qcFlag 
TCOON,ioos:station:TCOON:003:1,2011-10-01T00:00:00Z,26.8015,-97.4706,0.0,6.1,65.0,7.1,'11111222,11111222,11111222' 
TCOON,ioos:station:TCOON:003:1,2011-10-01T01:00:00Z,26.8015,-97.4706,0.0,4.5,52.0,5.4,'11111222,11111222,11111222' 
TCOON,ioos:station:TCOON:003:1,2011-10-01T02:00:00Z,26.8015,-97.4706,0.0,3.3,42.0,3.9,'11111222,11111222,11111222' 
TCOON,ioos:station:TCOON:003:1,2011-10-01T03:00:00Z,26.8015,-97.4706,0.0,2.4,47.0,2.6,'11111222,11111222,11111222' 
TCOON,ioos:station:TCOON:003:1,2011-10-01T04:00:00Z,26.8015,-97.4706,0.0,2.1,38.0,2.4,'11111222,11111222,11111222' 
TCOON,ioos:station:TCOON:003:1,2011-10-01T05:00:00Z,26.8015,-97.4706,0.0,3.0,32.0,3.3,'11111222,11111222,11111222' 
TCOON,ioos:station:TCOON:003:1,2011-10-01T06:00:00Z,26.8015,-97.4706,0.0,2.4,35.0,2.5,'11111222,11111222,11111222' 
TCOON,ioos:station:TCOON:003:1,2011-10-01T07:00:00Z,26.8015,-97.4706,0.0,1.4,313.0,1.6,'11111222,11111222,11111222' 
TCOON,ioos:station:TCOON:003:1,2011-10-01T08:00:00Z,26.8015,-97.4706,0.0,2.1,276.0,2.5,'11111222,11111222,11111222' 
TCOON,ioos:station:TCOON:003:1,2011-10-01T09:00:00Z,26.8015,-97.4706,0.0,3.8,293.0,4.3,'11111222,11111222,11111222' 
TCOON,ioos:station:TCOON:003:1,2011-10-01T10:00:00Z,26.8015,-97.4706,0.0,2.4,258.0,2.6,'11111222,11111222,11111222' 
TCOON,ioos:station:TCOON:003:1,2011-10-01T11:00:00Z,26.8015,-97.4706,0.0,1.8,297.0,2.3,'11111222,11111222,11111222' 
TCOON,ioos:station:TCOON:003:1,2011-10-01T12:00:00Z,26.8015,-97.4706,0.0,1.6,256.0,2.0,'11111222,11111222,11111222' 
TCOON,ioos:station:TCOON:003:1,2011-10-01T13:00:00Z,26.8015,-97.4706,0.0,4.2,42.0,5.3,'11111222,11111222,11111222' 
TCOON,ioos:station:TCOON:003:1,2011-10-01T14:00:00Z,26.8015,-97.4706,0.0,6.0,61.0,8.5,'11111222,11111222,11111222' 
TCOON,ioos:station:TCOON:003:1,2011-10-01T15:00:00Z,26.8015,-97.4706,0.0,5.2,60.0,7.2,'11111222,11111222,11111222' 
TCOON,ioos:station:TCOON:003:1,2011-10-01T16:00:00Z,26.8015,-97.4706,0.0,6.1,49.0,8.2,'11111222,11111222,11111222' 
TCOON,ioos:station:TCOON:003:1,2011-10-01T17:00:00Z,26.8015,-97.4706,0.0,6.9,75.0,8.8,'11111222,11111222,11111222' 
TCOON,ioos:station:TCOON:003:1,2011-10-01T18:00:00Z,26.8015,-97.4706,0.0,7.0,50.0,10.4,'11111222,11111222,11111222' 
TCOON,ioos:station:TCOON:003:1,2011-10-01T19:00:00Z,26.8015,-97.4706,0.0,7.5,55.0,9.3,'11111222,11111222,11111222' 
TCOON,ioos:station:TCOON:003:1,2011-10-01T20:00:00Z,26.8015,-97.4706,0.0,8.0,70.0,10.6,'11111222,11111222,11111222' 
TCOON,ioos:station:TCOON:003:1,2011-10-01T21:00:00Z,26.8015,-97.4706,0.0,8.3,69.0,9.9,'11111222,11111222,11111222' 
TCOON,ioos:station:TCOON:003:1,2011-10-01T22:00:00Z,26.8015,-97.4706,0.0,8.2,77.0,9.6,'11111222,11111222,11111222' 
TCOON,ioos:station:TCOON:003:1,2011-10-01T23:00:00Z,26.8015,-97.4706,0.0,7.7,60.0,9.1,'11111222,11111222,11111222' 
TCOON,ioos:station:TCOON:003:1,2011-10-02T00:00:00Z,26.8015,-97.4706,0.0,6.3,70.0,7.7,'11111222,11111222,11111222' 
TCOON,ioos:station:TCOON:003:1,2011-10-02T01:00:00Z,26.8015,-97.4706,0.0,5.2,70.0,6.2,'11111222,11111222,11111222' 
TCOON,ioos:station:TCOON:003:1,2011-10-02T02:00:00Z,26.8015,-97.4706,0.0,5.0,80.0,5.6,'11111222,11111222,11111222' 
TCOON,ioos:station:TCOON:003:1,2011-10-02T03:00:00Z,26.8015,-97.4706,0.0,3.4,83.0,4.1,'11111222,11111222,11111222' 
TCOON,ioos:station:TCOON:003:1,2011-10-02T04:00:00Z,26.8015,-97.4706,0.0,4.3,64.0,5.5,'11111222,11111222,11111222' 
TCOON,ioos:station:TCOON:003:1,2011-10-02T05:00:00Z,26.8015,-97.4706,0.0,3.5,65.0,4.4,'11111222,11111222,11111222' 
TCOON,ioos:station:TCOON:003:1,2011-10-02T06:00:00Z,26.8015,-97.4706,0.0,3.7,51.0,4.3,'11111222,11111222,11111222' 
TCOON,ioos:station:TCOON:003:1,2011-10-02T07:00:00Z,26.8015,-97.4706,0.0,3.2,55.0,3.5,'11111222,11111222,11111222' 
TCOON,ioos:station:TCOON:003:1,2011-10-02T08:00:00Z,26.8015,-97.4706,0.0,2.8,67.0,3.2,'11111222,11111222,11111222' 
TCOON,ioos:station:TCOON:003:1,2011-10-02T09:00:00Z,26.8015,-97.4706,0.0,2.0,62.0,2.3,'11111222,11111222,11111222' 
TCOON,ioos:station:TCOON:003:1,2011-10-02T10:00:00Z,26.8015,-97.4706,0.0,1.8,305.0,2.2,'11111222,11111222,11111222' 
TCOON,ioos:station:TCOON:003:1,2011-10-02T11:00:00Z,26.8015,-97.4706,0.0,1.2,15.0,1.7,'11111222,11111222,11111222' 
TCOON,ioos:station:TCOON:003:1,2011-10-02T12:00:00Z,26.8015,-97.4706,0.0,2.2,45.0,2.7,'11111222,11111222,11111222' 
TCOON,ioos:station:TCOON:003:1,2011-10-02T13:00:00Z,26.8015,-97.4706,0.0,2.8,59.0,3.8,'11111222,11111222,11111222' 
TCOON,ioos:station:TCOON:003:1,2011-10-02T14:00:00Z,26.8015,-97.4706,0.0,5.2,36.0,6.3,'11111222,11111222,11111222' 
TCOON,ioos:station:TCOON:003:1,2011-10-02T15:00:00Z,26.8015,-97.4706,0.0,4.6,43.0,5.9,'11111222,11111222,11111222' 
TCOON,ioos:station:TCOON:003:1,2011-10-02T16:00:00Z,26.8015,-97.4706,0.0,5.8,68.0,8.8,'11111222,11111222,11111222' 
TCOON,ioos:station:TCOON:003:1,2011-10-02T17:00:00Z,26.8015,-97.4706,0.0,6.6,62.0,8.2,'11111222,11111222,11111222' 
TCOON,ioos:station:TCOON:003:1,2011-10-02T18:00:00Z,26.8015,-97.4706,0.0,6.2,67.0,7.6,'11111222,11111222,11111222' 
TCOON,ioos:station:TCOON:003:1,2011-10-02T19:00:00Z,26.8015,-97.4706,0.0,6.0,43.0,7.6,'11111222,11111222,11111222' 
TCOON,ioos:station:TCOON:003:1,2011-10-02T20:00:00Z,26.8015,-97.4706,0.0,5.9,63.0,8.8,'11111222,11111222,11111222' 
TCOON,ioos:station:TCOON:003:1,2011-10-02T21:00:00Z,26.8015,-97.4706,0.0,6.7,93.0,8.5,'11111222,11111222,11111222' 
TCOON,ioos:station:TCOON:003:1,2011-10-02T22:00:00Z,26.8015,-97.4706,0.0,4.8,80.0,6.3,'11111222,11111222,11111222' 
TCOON,ioos:station:TCOON:003:1,2011-10-02T23:00:00Z,26.8015,-97.4706,0.0,4.5,100.0,5.9,'11111222,11111222,11111222' 
TCOON,ioos:station:TCOON:003:1,2011-10-03T00:00:00Z,26.8015,-97.4706,0.0,5.8,82.0,6.9,'11111222,11111222,11111222' 
TCOON,ioos:station:TCOON:003:1,2011-10-03T01:00:00Z,26.8015,-97.4706,0.0,3.5,82.0,4.1,'11111222,11111222,11111222' 
TCOON,ioos:station:TCOON:003:1,2011-10-03T02:00:00Z,26.8015,-97.4706,0.0,4.2,71.0,5.2,'11111222,11111222,11111222' 
TCOON,ioos:station:TCOON:003:1,2011-10-03T03:00:00Z,26.8015,-97.4706,0.0,4.4,64.0,5.4,'11111222,11111222,11111222' 
TCOON,ioos:station:TCOON:003:1,2011-10-03T04:00:00Z,26.8015,-97.4706,0.0,3.8,80.0,4.3,'11111222,11111222,11111222' 
TCOON,ioos:station:TCOON:003:1,2011-10-03T05:00:00Z,26.8015,-97.4706,0.0,2.9,76.0,3.5,'11111222,11111222,11111222' 
TCOON,ioos:station:TCOON:003:1,2011-10-03T06:00:00Z,26.8015,-97.4706,0.0,3.1,84.0,3.4,'11111222,11111222,11111222' 
TCOON,ioos:station:TCOON:003:1,2011-10-03T07:00:00Z,26.8015,-97.4706,0.0,2.9,89.0,3.3,'11111222,11111222,11111222' 
TCOON,ioos:station:TCOON:003:1,2011-10-03T08:00:00Z,26.8015,-97.4706,0.0,2.3,79.0,2.8,'11111222,11111222,11111222' 
TCOON,ioos:station:TCOON:003:1,2011-10-03T09:00:00Z,26.8015,-97.4706,0.0,3.2,65.0,3.6,'11111222,11111222,11111222' 
TCOON,ioos:station:TCOON:003:1,2011-10-03T10:00:00Z,26.8015,-97.4706,0.0,3.3,60.0,3.7,'11111222,11111222,11111222' 
TCOON,ioos:station:TCOON:003:1,2011-10-03T11:00:00Z,26.8015,-97.4706,0.0,3.6,62.0,4.0,'11111222,11111222,11111222' 
TCOON,ioos:station:TCOON:003:1,2011-10-03T12:00:00Z,26.8015,-97.4706,0.0,2.6,61.0,3.0,'11111222,11111222,11111222' 
TCOON,ioos:station:TCOON:003:1,2011-10-03T13:00:00Z,26.8015,-97.4706,0.0,2.5,40.0,2.8,'11111222,11111222,11111222' 
TCOON,ioos:station:TCOON:003:1,2011-10-03T14:00:00Z,26.8015,-97.4706,0.0,5.2,56.0,7.5,'11111222,11111222,11111222' 
TCOON,ioos:station:TCOON:003:1,2011-10-03T15:00:00Z,26.8015,-97.4706,0.0,4.2,61.0,5.7,'11111222,11111222,11111222' 
TCOON,ioos:station:TCOON:003:1,2011-10-03T16:00:00Z,26.8015,-97.4706,0.0,2.9,83.0,3.9,'11111222,11111222,11111222' 
TCOON,ioos:station:TCOON:003:1,2011-10-03T17:00:00Z,26.8015,-97.4706,0.0,5.3,78.0,6.7,'11111222,11111222,11111222' 
TCOON,ioos:station:TCOON:003:1,2011-10-03T18:00:00Z,26.8015,-97.4706,0.0,5.0,104.0,6.4,'11111222,11111222,11111222' 
TCOON,ioos:station:TCOON:003:1,2011-10-03T19:00:00Z,26.8015,-97.4706,0.0,5.3,60.0,6.5,'11111222,11111222,11111222' 
TCOON,ioos:station:TCOON:003:1,2011-10-03T20:00:00Z,26.8015,-97.4706,0.0,6.0,106.0,7.5,'11111222,11111222,11111222' 
TCOON,ioos:station:TCOON:003:1,2011-10-03T21:00:00Z,26.8015,-97.4706,0.0,5.0,75.0,6.3,'11111222,11111222,11111222' 
TCOON,ioos:station:TCOON:003:1,2011-10-03T22:00:00Z,26.8015,-97.4706,0.0,4.8,80.0,5.9,'11111222,11111222,11111222' 
TCOON,ioos:station:TCOON:003:1,2011-10-03T23:00:00Z,26.8015,-97.4706,0.0,5.3,89.0,6.6,'11111222,11111222,11111222' 
TCOON,ioos:station:TCOON:003:1,2011-10-04T00:00:00Z,26.8015,-97.4706,0.0,5.2,87.0,6.1,'11111222,11111222,11111222' 
TCOON,ioos:station:TCOON:003:1,2011-10-04T01:00:00Z,26.8015,-97.4706,0.0,3.5,96.0,3.9,'11111222,11111222,11111222' 
TCOON,ioos:station:TCOON:003:1,2011-10-04T02:00:00Z,26.8015,-97.4706,0.0,3.1,90.0,3.6,'11111222,11111222,11111222' 
TCOON,ioos:station:TCOON:003:1,2011-10-04T03:00:00Z,26.8015,-97.4706,0.0,5.5,106.0,6.2,'11111222,11111222,11111222' 
TCOON,ioos:station:TCOON:003:1,2011-10-04T04:00:00Z,26.8015,-97.4706,0.0,2.8,110.0,3.4,'11111222,11111222,11111222' 
TCOON,ioos:station:TCOON:003:1,2011-10-04T05:00:00Z,26.8015,-97.4706,0.0,2.4,126.0,2.7,'11111222,11111222,11111222' 
TCOON,ioos:station:TCOON:003:1,2011-10-04T06:00:00Z,26.8015,-97.4706,0.0,2.0,283.0,2.1,'11111222,11111222,11111222' 
TCOON,ioos:station:TCOON:003:1,2011-10-04T07:00:00Z,26.8015,-97.4706,0.0,2.6,315.0,2.7,'11111222,11111222,11111222' 
TCOON,ioos:station:TCOON:003:1,2011-10-04T08:00:00Z,26.8015,-97.4706,0.0,2.6,294.0,3.1,'11111222,11111222,11111222' 
TCOON,ioos:station:TCOON:003:1,2011-10-04T09:00:00Z,26.8015,-97.4706,0.0,3.3,325.0,3.7,'11111222,11111222,11111222' 
TCOON,ioos:station:TCOON:003:1,2011-10-04T10:00:00Z,26.8015,-97.4706,0.0,2.4,286.0,2.7,'11111222,11111222,11111222' 
TCOON,ioos:station:TCOON:003:1,2011-10-04T11:00:00Z,26.8015,-97.4706,0.0,2.5,318.0,2.7,'11111222,11111222,11111222' 
TCOON,ioos:station:TCOON:003:1,2011-10-04T12:00:00Z,26.8015,-97.4706,0.0,2.7,314.0,3.4,'11111222,11111222,11111222' 
TCOON,ioos:station:TCOON:003:1,2011-10-04T13:00:00Z,26.8015,-97.4706,0.0,2.8,332.0,3.0,'11111222,11111222,11111222' 
TCOON,ioos:station:TCOON:003:1,2011-10-04T14:00:00Z,26.8015,-97.4706,0.0,3.2,304.0,3.5,'11111222,11111222,11111222' 
TCOON,ioos:station:TCOON:003:1,2011-10-04T15:00:00Z,26.8015,-97.4706,0.0,0.5,230.0,1.1,'11111222,11111222,11111222' 
TCOON,ioos:station:TCOON:003:1,2011-10-04T16:00:00Z,26.8015,-97.4706,0.0,4.4,119.0,5.5,'11111222,11111222,11111222' 
TCOON,ioos:station:TCOON:003:1,2011-10-04T17:00:00Z,26.8015,-97.4706,0.0,3.4,93.0,4.1,'11111222,11111222,11111222' 
TCOON,ioos:station:TCOON:003:1,2011-10-04T18:00:00Z,26.8015,-97.4706,0.0,5.2,102.0,6.6,'11111222,11111222,11111222' 
TCOON,ioos:station:TCOON:003:1,2011-10-04T19:00:00Z,26.8015,-97.4706,0.0,6.9,105.0,8.3,'11111222,11111222,11111222' 
TCOON,ioos:station:TCOON:003:1,2011-10-04T20:00:00Z,26.8015,-97.4706,0.0,7.3,100.0,10.0,'11111222,11111222,11111222' 
TCOON,ioos:station:TCOON:003:1,2011-10-04T21:00:00Z,26.8015,-97.4706,0.0,8.6,92.0,10.1,'11111222,11111222,11111222' 
TCOON,ioos:station:TCOON:003:1,2011-10-04T22:00:00Z,26.8015,-97.4706,0.0,6.5,87.0,8.6,'11111222,11111222,11111222' 
TCOON,ioos:station:TCOON:003:1,2011-10-04T23:00:00Z,26.8015,-97.4706,0.0,7.0,102.0,8.0,'11111222,11111222,11111222' 
TCOON,ioos:station:TCOON:003:1,2011-10-05T00:00:00Z,26.8015,-97.4706,0.0,6.0,99.0,6.9,'11111222,11111222,11111222' 
TCOON,ioos:station:TCOON:003:1,2011-10-05T01:00:00Z,26.8015,-97.4706,0.0,5.6,103.0,7.6,'11111222,11111222,11111222' 
TCOON,ioos:station:TCOON:003:1,2011-10-05T02:00:00Z,26.8015,-97.4706,0.0,5.3,103.0,6.2,'11111222,11111222,11111222' 
TCOON,ioos:station:TCOON:003:1,2011-10-05T03:00:00Z,26.8015,-97.4706,0.0,4.8,105.0,5.5,'11111222,11111222,11111222' 
TCOON,ioos:station:TCOON:003:1,2011-10-05T04:00:00Z,26.8015,-97.4706,0.0,4.2,118.0,5.0,'11111222,11111222,11111222' 
TCOON,ioos:station:TCOON:003:1,2011-10-05T05:00:00Z,26.8015,-97.4706,0.0,3.7,114.0,4.2,'11111222,11111222,11111222' 
TCOON,ioos:station:TCOON:003:1,2011-10-05T06:00:00Z,26.8015,-97.4706,0.0,3.7,131.0,4.2,'11111222,11111222,11111222' 
TCOON,ioos:station:TCOON:003:1,2011-10-05T07:00:00Z,26.8015,-97.4706,0.0,3.4,127.0,4.0,'11111222,11111222,11111222' 
TCOON,ioos:station:TCOON:003:1,2011-10-05T08:00:00Z,26.8015,-97.4706,0.0,4.1,122.0,4.9,'11111222,11111222,11111222' 
TCOON,ioos:station:TCOON:003:1,2011-10-05T09:00:00Z,26.8015,-97.4706,0.0,3.2,120.0,3.6,'11111222,11111222,11111222' 
TCOON,ioos:station:TCOON:003:1,2011-10-05T10:00:00Z,26.8015,-97.4706,0.0,2.2,113.0,2.5,'11111222,11111222,11111222' 
TCOON,ioos:station:TCOON:003:1,2011-10-05T11:00:00Z,26.8015,-97.4706,0.0,0.8,232.0,0.9,'11111222,11111222,11111222' 
TCOON,ioos:station:TCOON:003:1,2011-10-05T12:00:00Z,26.8015,-97.4706,0.0,0.0,2.0,99.0,'11111222,11111222,11144222' 
TCOON,ioos:station:TCOON:003:1,2011-10-05T13:00:00Z,26.8015,-97.4706,0.0,0.8,314.0,1.0,'11111222,11111222,11111222' 
TCOON,ioos:station:TCOON:003:1,2011-10-05T14:00:00Z,26.8015,-97.4706,0.0,2.0,161.0,2.4,'11111222,11111222,11111222' 
TCOON,ioos:station:TCOON:003:1,2011-10-05T15:00:00Z,26.8015,-97.4706,0.0,3.6,130.0,4.2,'11111222,11111222,11111222' 
TCOON,ioos:station:TCOON:003:1,2011-10-05T16:00:00Z,26.8015,-97.4706,0.0,3.6,175.0,4.1,'11111222,11111222,11111222' 
TCOON,ioos:station:TCOON:003:1,2011-10-05T17:00:00Z,26.8015,-97.4706,0.0,4.0,164.0,4.3,'11111222,11111222,11111222' 
TCOON,ioos:station:TCOON:003:1,2011-10-05T18:00:00Z,26.8015,-97.4706,0.0,4.2,141.0,5.3,'11111222,11111222,11111222' 
TCOON,ioos:station:TCOON:003:1,2011-10-05T19:00:00Z,26.8015,-97.4706,0.0,8.3,114.0,10.0,'11111222,11111222,11111222' 
TCOON,ioos:station:TCOON:003:1,2011-10-05T20:00:00Z,26.8015,-97.4706,0.0,7.4,107.0,9.7,'11111222,11111222,11111222' 
TCOON,ioos:station:TCOON:003:1,2011-10-05T21:00:00Z,26.8015,-97.4706,0.0,9.1,112.0,10.5,'11111222,11111222,11111222' 
TCOON,ioos:station:TCOON:003:1,2011-10-05T22:00:00Z,26.8015,-97.4706,0.0,7.9,105.0,10.2,'11111222,11111222,11111222' 
TCOON,ioos:station:TCOON:003:1,2011-10-05T23:00:00Z,26.8015,-97.4706,0.0,6.8,107.0,8.4,'11111222,11111222,11111222' 
TCOON,ioos:station:TCOON:003:1,2011-10-06T00:00:00Z,26.8015,-97.4706,0.0,8.2,112.0,9.1,'11111222,11111222,11111222' 
TCOON,ioos:station:TCOON:003:1,2011-10-06T01:00:00Z,26.8015,-97.4706,0.0,6.4,111.0,7.6,'11111222,11111222,11111222' 
TCOON,ioos:station:TCOON:003:1,2011-10-06T02:00:00Z,26.8015,-97.4706,0.0,5.4,120.0,7.1,'11111222,11111222,11111222' 
TCOON,ioos:station:TCOON:003:1,2011-10-06T03:00:00Z,26.8015,-97.4706,0.0,5.5,119.0,6.6,'11111222,11111222,11111222' 
TCOON,ioos:station:TCOON:003:1,2011-10-06T04:00:00Z,26.8015,-97.4706,0.0,4.9,118.0,5.7,'11111222,11111222,11111222' 
TCOON,ioos:station:TCOON:003:1,2011-10-06T05:00:00Z,26.8015,-97.4706,0.0,4.7,132.0,5.6,'11111222,11111222,11111222' 
TCOON,ioos:station:TCOON:003:1,2011-10-06T06:00:00Z,26.8015,-97.4706,0.0,4.6,136.0,5.7,'11111222,11111222,11111222' 
TCOON,ioos:station:TCOON:003:1,2011-10-06T07:00:00Z,26.8015,-97.4706,0.0,4.1,137.0,4.4,'11111222,11111222,11111222' 
TCOON,ioos:station:TCOON:003:1,2011-10-06T08:00:00Z,26.8015,-97.4706,0.0,4.0,139.0,4.5,'11111222,11111222,11111222' 
TCOON,ioos:station:TCOON:003:1,2011-10-06T09:00:00Z,26.8015,-97.4706,0.0,1.7,197.0,2.0,'11111222,11111222,11111222' 
TCOON,ioos:station:TCOON:003:1,2011-10-06T10:00:00Z,26.8015,-97.4706,0.0,1.9,189.0,2.3,'11111222,11111222,11111222' 
TCOON,ioos:station:TCOON:003:1,2011-10-06T11:00:00Z,26.8015,-97.4706,0.0,1.6,200.0,2.0,'11111222,11111222,11111222' 
TCOON,ioos:station:TCOON:003:1,2011-10-06T12:00:00Z,26.8015,-97.4706,0.0,1.3,196.0,1.4,'11111222,11111222,11111222' 
TCOON,ioos:station:TCOON:003:1,2011-10-06T13:00:00Z,26.8015,-97.4706,0.0,1.4,165.0,1.6,'11111222,11111222,11111222' 
TCOON,ioos:station:TCOON:003:1,2011-10-06T14:00:00Z,26.8015,-97.4706,0.0,1.7,144.0,2.0,'11111222,11111222,11111222' 
TCOON,ioos:station:TCOON:003:1,2011-10-06T15:00:00Z,26.8015,-97.4706,0.0,3.7,162.0,4.2,'11111222,11111222,11111222' 
TCOON,ioos:station:TCOON:003:1,2011-10-06T16:00:00Z,26.8015,-97.4706,0.0,4.4,154.0,5.0,'11111222,11111222,11111222' 
TCOON,ioos:station:TCOON:003:1,2011-10-06T17:00:00Z,26.8015,-97.4706,0.0,4.8,142.0,5.4,'11111222,11111222,11111222' 
TCOON,ioos:station:TCOON:003:1,2011-10-06T18:00:00Z,26.8015,-97.4706,0.0,4.4,147.0,5.3,'11111222,11111222,11111222' 
TCOON,ioos:station:TCOON:003:1,2011-10-06T19:00:00Z,26.8015,-97.4706,0.0,7.1,109.0,8.7,'11111222,11111222,11111222' 
TCOON,ioos:station:TCOON:003:1,2011-10-06T20:00:00Z,26.8015,-97.4706,0.0,7.8,117.0,9.3,'11111222,11111222,11111222' 
TCOON,ioos:station:TCOON:003:1,2011-10-06T21:00:00Z,26.8015,-97.4706,0.0,8.1,112.0,10.1,'11111222,11111222,11111222' 
TCOON,ioos:station:TCOON:003:1,2011-10-06T22:00:00Z,26.8015,-97.4706,0.0,9.7,113.0,10.9,'11111222,11111222,11111222' 
TCOON,ioos:station:TCOON:003:1,2011-10-06T23:00:00Z,26.8015,-97.4706,0.0,9.2,123.0,11.4,'11111222,11111222,11111222' 
TCOON,ioos:station:TCOON:003:1,2011-10-07T00:00:00Z,26.8015,-97.4706,0.0,8.5,121.0,10.3,'11111222,11111222,11111222' 
TCOON,ioos:station:TCOON:003:1,2011-10-07T01:00:00Z,26.8015,-97.4706,0.0,8.0,130.0,9.4,'11111222,11111222,11111222' 
TCOON,ioos:station:TCOON:003:1,2011-10-07T02:00:00Z,26.8015,-97.4706,0.0,6.6,135.0,7.9,'11111222,11111222,11111222' 
TCOON,ioos:station:TCOON:003:1,2011-10-07T03:00:00Z,26.8015,-97.4706,0.0,7.1,127.0,8.5,'11111222,11111222,11111222' 
TCOON,ioos:station:TCOON:003:1,2011-10-07T04:00:00Z,26.8015,-97.4706,0.0,6.4,137.0,7.3,'11111222,11111222,11111222' 
TCOON,ioos:station:TCOON:003:1,2011-10-07T05:00:00Z,26.8015,-97.4706,0.0,7.5,135.0,8.5,'11111222,11111222,11111222' 
TCOON,ioos:station:TCOON:003:1,2011-10-07T06:00:00Z,26.8015,-97.4706,0.0,7.1,133.0,8.3,'11111222,11111222,11111222' 
TCOON,ioos:station:TCOON:003:1,2011-10-07T07:00:00Z,26.8015,-97.4706,0.0,6.9,137.0,8.2,'11111222,11111222,11111222' 
TCOON,ioos:station:TCOON:003:1,2011-10-07T08:00:00Z,26.8015,-97.4706,0.0,7.0,143.0,8.4,'11111222,11111222,11111222' 
TCOON,ioos:station:TCOON:003:1,2011-10-07T09:00:00Z,26.8015,-97.4706,0.0,5.8,150.0,6.4,'11111222,11111222,11111222' 
TCOON,ioos:station:TCOON:003:1,2011-10-07T10:00:00Z,26.8015,-97.4706,0.0,6.4,135.0,7.5,'11111222,11111222,11111222' 
TCOON,ioos:station:TCOON:003:1,2011-10-07T11:00:00Z,26.8015,-97.4706,0.0,8.4,140.0,10.2,'11111222,11111222,11111222' 
TCOON,ioos:station:TCOON:003:1,2011-10-07T12:00:00Z,26.8015,-97.4706,0.0,6.0,138.0,6.7,'11111222,11111222,11111222' 
TCOON,ioos:station:TCOON:003:1,2011-10-07T13:00:00Z,26.8015,-97.4706,0.0,7.7,135.0,9.0,'11111222,11111222,11111222' 
TCOON,ioos:station:TCOON:003:1,2011-10-07T14:00:00Z,26.8015,-97.4706,0.0,8.4,136.0,9.9,'11111222,11111222,11111222' 
TCOON,ioos:station:TCOON:003:1,2011-10-07T15:00:00Z,26.8015,-97.4706,0.0,7.4,138.0,8.4,'11111222,11111222,11111222' 
TCOON,ioos:station:TCOON:003:1,2011-10-07T16:00:00Z,26.8015,-97.4706,0.0,7.7,130.0,9.4,'11111222,11111222,11111222' 
TCOON,ioos:station:TCOON:003:1,2011-10-07T17:00:00Z,26.8015,-97.4706,0.0,8.5,126.0,10.4,'11111222,11111222,11111222' 
TCOON,ioos:station:TCOON:003:1,2011-10-07T18:00:00Z,26.8015,-97.4706,0.0,9.0,124.0,10.8,'11111222,11111222,11111222' 
TCOON,ioos:station:TCOON:003:1,2011-10-07T19:00:00Z,26.8015,-97.4706,0.0,10.2,111.0,13.2,'11111222,11111222,11111222' 
TCOON,ioos:station:TCOON:003:1,2011-10-07T20:00:00Z,26.8015,-97.4706,0.0,9.0,127.0,10.9,'11111222,11111222,11111222' 
TCOON,ioos:station:TCOON:003:1,2011-10-07T21:00:00Z,26.8015,-97.4706,0.0,9.9,117.0,12.0,'11111222,11111222,11111222' 
TCOON,ioos:station:TCOON:003:1,2011-10-07T22:00:00Z,26.8015,-97.4706,0.0,10.1,125.0,12.2,'11111222,11111222,11111222' 
TCOON,ioos:station:TCOON:003:1,2011-10-07T23:00:00Z,26.8015,-97.4706,0.0,11.6,132.0,13.0,'11111222,11111222,11111222' 
TCOON,ioos:station:TCOON:003:1,2011-10-08T00:00:00Z,26.8015,-97.4706,0.0,9.6,110.0,11.3,'11111222,11111222,11111222' 
TCOON,ioos:station:TCOON:003:1,2011-10-08T01:00:00Z,26.8015,-97.4706,0.0,8.6,124.0,10.5,'11111222,11111222,11111222' 
TCOON,ioos:station:TCOON:003:1,2011-10-08T02:00:00Z,26.8015,-97.4706,0.0,8.5,120.0,10.7,'11111222,11111222,11111222' 
TCOON,ioos:station:TCOON:003:1,2011-10-08T03:00:00Z,26.8015,-97.4706,0.0,8.5,127.0,9.8,'11111222,11111222,11111222' 
TCOON,ioos:station:TCOON:003:1,2011-10-08T04:00:00Z,26.8015,-97.4706,0.0,8.9,124.0,10.6,'11111222,11111222,11111222' 
TCOON,ioos:station:TCOON:003:1,2011-10-08T05:00:00Z,26.8015,-97.4706,0.0,9.0,121.0,10.3,'11111222,11111222,11111222' 
TCOON,ioos:station:TCOON:003:1,2011-10-08T06:00:00Z,26.8015,-97.4706,0.0,9.2,123.0,11.7,'11111222,11111222,11111222' 
TCOON,ioos:station:TCOON:003:1,2011-10-08T07:00:00Z,26.8015,-97.4706,0.0,9.9,127.0,11.7,'11111222,11111222,11111222' 
TCOON,ioos:station:TCOON:003:1,2011-10-08T08:00:00Z,26.8015,-97.4706,0.0,9.3,126.0,11.6,'11111222,11111222,11111222' 
TCOON,ioos:station:TCOON:003:1,2011-10-08T09:00:00Z,26.8015,-97.4706,0.0,8.3,124.0,9.7,'11111222,11111222,11111222' 
TCOON,ioos:station:TCOON:003:1,2011-10-08T10:00:00Z,26.8015,-97.4706,0.0,10.1,121.0,11.9,'11111222,11111222,11111222' 
TCOON,ioos:station:TCOON:003:1,2011-10-08T11:00:00Z,26.8015,-97.4706,0.0,9.2,119.0,10.8,'11111222,11111222,11111222' 
TCOON,ioos:station:TCOON:003:1,2011-10-08T12:00:00Z,26.8015,-97.4706,0.0,9.0,122.0,10.3,'11111222,11111222,11111222' 
TCOON,ioos:station:TCOON:003:1,2011-10-08T13:00:00Z,26.8015,-97.4706,0.0,9.9,124.0,11.9,'11111222,11111222,11111222' 
TCOON,ioos:station:TCOON:003:1,2011-10-08T14:00:00Z,26.8015,-97.4706,0.0,9.2,128.0,11.2,'11111222,11111222,11111222' 
TCOON,ioos:station:TCOON:003:1,2011-10-08T15:00:00Z,26.8015,-97.4706,0.0,8.7,134.0,11.0,'11111222,11111222,11111222' 
TCOON,ioos:station:TCOON:003:1,2011-10-08T16:00:00Z,26.8015,-97.4706,0.0,8.0,137.0,9.2,'11111222,11111222,11111222' 
TCOON,ioos:station:TCOON:003:1,2011-10-08T17:00:00Z,26.8015,-97.4706,0.0,8.1,144.0,10.2,'11111222,11111222,11111222' 
TCOON,ioos:station:TCOON:003:1,2011-10-08T18:00:00Z,26.8015,-97.4706,0.0,8.2,125.0,9.8,'11111222,11111222,11111222' 
TCOON,ioos:station:TCOON:003:1,2011-10-08T19:00:00Z,26.8015,-97.4706,0.0,9.3,124.0,11.5,'11111222,11111222,11111222' 
TCOON,ioos:station:TCOON:003:1,2011-10-08T20:00:00Z,26.8015,-97.4706,0.0,8.6,133.0,10.0,'11111222,11111222,11111222' 
TCOON,ioos:station:TCOON:003:1,2011-10-08T21:00:00Z,26.8015,-97.4706,0.0,8.6,125.0,10.3,'11111222,11111222,11111222' 
TCOON,ioos:station:TCOON:003:1,2011-10-08T22:00:00Z,26.8015,-97.4706,0.0,8.5,122.0,10.0,'11111222,11111222,11111222' 
TCOON,ioos:station:TCOON:003:1,2011-10-08T23:00:00Z,26.8015,-97.4706,0.0,9.4,117.0,11.3,'11111222,11111222,11111222' 
TCOON,ioos:station:TCOON:003:1,2011-10-09T00:00:00Z,26.8015,-97.4706,0.0,9.6,126.0,11.2,'11111222,11111222,11111222' 
TCOON,ioos:station:TCOON:003:1,2011-10-09T01:00:00Z,26.8015,-97.4706,0.0,9.0,121.0,10.2,'11111222,11111222,11111222' 
TCOON,ioos:station:TCOON:003:1,2011-10-09T02:00:00Z,26.8015,-97.4706,0.0,8.6,122.0,10.4,'11111222,11111222,11111222' 
TCOON,ioos:station:TCOON:003:1,2011-10-09T03:00:00Z,26.8015,-97.4706,0.0,8.5,127.0,10.1,'11111222,11111222,11111222' 
TCOON,ioos:station:TCOON:003:1,2011-10-09T04:00:00Z,26.8015,-97.4706,0.0,8.3,127.0,10.3,'11111222,11111222,11111222' 
TCOON,ioos:station:TCOON:003:1,2011-10-09T05:00:00Z,26.8015,-97.4706,0.0,8.4,127.0,10.3,'11111222,11111222,11111222' 
TCOON,ioos:station:TCOON:003:1,2011-10-09T06:00:00Z,26.8015,-97.4706,0.0,8.8,135.0,10.1,'11111222,11111222,11111222' 
TCOON,ioos:station:TCOON:003:1,2011-10-09T07:00:00Z,26.8015,-97.4706,0.0,8.0,136.0,9.5,'11111222,11111222,11111222' 
TCOON,ioos:station:TCOON:003:1,2011-10-09T08:00:00Z,26.8015,-97.4706,0.0,8.2,135.0,9.3,'11111222,11111222,11111222' 
TCOON,ioos:station:TCOON:003:1,2011-10-09T09:00:00Z,26.8015,-97.4706,0.0,6.4,136.0,7.2,'11111222,11111222,11111222' 
TCOON,ioos:station:TCOON:003:1,2011-10-09T10:00:00Z,26.8015,-97.4706,0.0,6.5,142.0,7.5,'11111222,11111222,11111222' 
TCOON,ioos:station:TCOON:003:1,2011-10-09T11:00:00Z,26.8015,-97.4706,0.0,5.3,143.0,6.2,'11111222,11111222,11111222' 